TimeEST,TemperatureF,Dew PointF,Humidity,Sea Level PressureIn,VisibilityMPH,Wind Direction,Wind SpeedMPH,Gust SpeedMPH,PrecipitationIn,Events,Conditions,WindDirDegrees,DateUTC
12:53 AM,16.0,12.9,88,29.82,10.0,Calm,Calm,-,N/A,,Clear,0,2013-01-17 05:53:00
1:53 AM,16.0,12.0,84,29.83,10.0,Calm,Calm,-,N/A,,Clear,0,2013-01-17 06:53:00
2:53 AM,19.0,15.1,85,29.81,10.0,SSE,4.6,-,N/A,,Clear,160,2013-01-17 07:53:00
4:53 AM,24.1,21.9,91,29.82,8.0,Calm,Calm,-,N/A,,Overcast,0,2013-01-17 09:53:00
5:53 AM,26.1,23.0,88,29.83,9.0,Calm,Calm,-,N/A,,Overcast,0,2013-01-17 10:53:00
7:53 AM,28.9,26.1,89,29.88,8.0,SSE,4.6,-,N/A,,Overcast,150,2013-01-17 12:53:00
8:53 AM,30.9,28.0,89,29.90,7.0,Calm,Calm,-,N/A,,Overcast,0,2013-01-17 13:53:00
9:53 AM,34.0,28.0,79,29.91,10.0,South,3.5,-,N/A,,Mostly Cloudy,180,2013-01-17 14:53:00
10:53 AM,36.0,26.1,67,29.92,10.0,West,9.2,17.3,N/A,,Mostly Cloudy,270,2013-01-17 15:53:00
11:45 AM,33.8,26.6,75,29.92,2.0,NNW,15.0,24.2,0.00,Snow,Light Snow,340,2013-01-17 16:45:00
11:53 AM,33.1,26.1,75,29.96,1.8,North,18.4,25.3,0.00,Snow,Light Snow,350,2013-01-17 16:53:00
12:06 PM,32.0,24.8,75,29.94,3.0,NNW,10.4,19.6,0.00,Snow,Light Snow,330,2013-01-17 17:06:00
12:23 PM,30.2,21.2,69,29.94,4.0,North,12.7,17.3,0.00,,Haze,350,2013-01-17 17:23:00
12:53 PM,30.0,19.9,66,30.00,4.0,North,11.5,-,0.00,,Haze,360,2013-01-17 17:53:00
1:53 PM,30.0,18.0,61,30.02,10.0,NNW,4.6,-,N/A,,Mostly Cloudy,340,2013-01-17 18:53:00
2:53 PM,30.0,12.0,47,30.05,10.0,WNW,11.5,21.9,N/A,,Mostly Cloudy,300,2013-01-17 19:53:00
3:53 PM,27.0,6.1,41,30.08,10.0,WNW,16.1,20.7,0.00,,Clear,290,2013-01-17 20:53:00
4:53 PM,25.0,3.9,41,30.08,10.0,Variable,4.6,-,N/A,,Clear,0,2013-01-17 21:53:00
5:53 PM,24.1,6.1,46,30.11,10.0,North,3.5,-,N/A,,Clear,360,2013-01-17 22:53:00
6:53 PM,19.9,7.0,57,30.13,10.0,NE,6.9,-,N/A,,Clear,50,2013-01-17 23:53:00
7:53 PM,19.0,5.0,54,30.15,10.0,North,6.9,-,N/A,,Clear,360,2013-01-18 00:53:00
8:53 PM,17.1,5.0,59,30.12,10.0,North,3.5,-,N/A,,Clear,10,2013-01-18 01:53:00
9:53 PM,16.0,1.9,54,30.12,10.0,North,4.6,-,N/A,,Clear,360,2013-01-18 02:53:00
10:53 PM,15.1,3.0,59,30.11,10.0,NE,6.9,-,N/A,,Clear,50,2013-01-18 03:53:00
11:53 PM,14.0,-0.9,52,30.12,10.0,NE,10.4,-,N/A,,Overcast,40,2013-01-18 04:53:00